Location: Prairie State College
(41.5244°N, 87.6382°W)
Time: 05:43:09
(UTC-05:00)

ISS - All Passes

Search period start: 29 July 2014 00:00
Search period end: 08 August 2014 00:00
Orbit: 411 x 419 km, 51.6° (Epoch: 29 July)

Date Brightness Start Highest point End Pass type
(mag) Time Alt. Az. Time Alt. Az. Time Alt. Az.
29 Jul - 01:05:45 10° W 01:08:45 29° NNW 01:11:45 10° NE visible
29 Jul - 02:44:15 10° NW 02:46:16 15° N 02:48:18 10° NNE visible
29 Jul - 04:21:22 10° NNW 04:23:57 20° NNE 04:26:31 10° ENE visible
29 Jul - 05:57:42 10° NW 06:01:04 82° NE 06:04:26 10° ESE daylight
29 Jul - 07:36:02 10° WSW 07:37:20 12° SW 07:38:38 10° SSW daylight
29 Jul - 22:40:31 10° S 22:43:15 24° SE 22:46:01 10° ENE night (unlit)
30 Jul - 00:16:37 10° WSW 00:19:49 43° NNW 00:23:03 10° NE visible
30 Jul - 01:55:00 10° NW 01:57:12 16° N 01:59:24 10° NNE visible
30 Jul - 03:32:37 10° NNW 03:34:54 17° N 03:37:11 10° NE visible
30 Jul - 05:08:56 10° NW 05:12:13 49° NNE 05:15:30 10° ESE visible
30 Jul - 06:46:09 10° W 06:48:43 21° SW 06:51:17 10° S daylight
30 Jul - 21:52:50 10° SSE 21:54:37 14° SE 21:56:25 10° E night (unlit)
30 Jul - 23:27:37 10° WSW 23:30:57 70° NNW 23:34:18 10° NE night (unlit)
31 Jul - 01:05:40 10° WNW 01:08:08 19° NNW 01:10:37 10° NNE visible
31 Jul - 02:43:46 10° NNW 02:45:49 15° N 02:47:53 10° NE visible
31 Jul - 04:20:13 10° NW 04:23:18 33° NNE 04:26:23 10° E visible
31 Jul - 05:56:55 10° WNW 06:00:02 35° SW 06:03:08 10° SSE daylight
31 Jul - 22:38:49 10° SW 22:42:08 68° SE 22:45:28 10° ENE night (unlit)
01 Aug - 00:16:20 10° WNW 00:19:06 23° NNW 00:21:53 10° NE visible
01 Aug - 01:54:45 10° NW 01:56:43 15° N 01:58:41 10° NE visible
01 Aug - 03:31:30 10° NW 03:34:20 24° NNE 03:37:08 10° ENE visible
01 Aug - 05:07:57 10° WNW 05:11:17 64° SW 05:14:36 10° SE visible
01 Aug - 21:50:16 10° SSW 21:53:22 37° SE 21:56:30 10° ENE visible
01 Aug - 23:27:05 10° W 23:30:07 31° NNW 23:33:10 10° NE night (unlit)
02 Aug - 01:05:35 10° NW 01:07:37 15° N 01:09:39 10° NNE visible
02 Aug - 02:42:47 10° NNW 02:45:18 19° NNE 02:47:49 10° ENE visible
02 Aug - 04:19:06 10° NW 04:22:28 74° NE 04:25:49 10° ESE visible
02 Aug - 05:57:05 10° W 05:58:46 13° SW 06:00:27 10° SSW daylight
02 Aug - 21:02:04 10° S 21:04:40 21° SE 21:07:17 10° E visible
02 Aug - 22:37:57 10° WSW 22:41:11 47° NNW 22:44:26 10° NE visible
03 Aug - 00:16:17 10° NW 00:18:31 17° N 00:20:46 10° NNE visible
03 Aug - 01:53:59 10° NNW 01:56:13 16° N 01:58:27 10° NE visible
03 Aug - 03:30:19 10° NW 03:33:34 45° NNE 03:36:49 10° ESE visible
03 Aug - 05:07:24 10° W 05:10:07 23° SW 05:12:49 10° S visible
03 Aug - 20:14:34 10° SSE 20:16:01 12° SE 20:17:28 10° ESE daylight
03 Aug - 21:48:58 10° WSW 21:52:18 77° NW 21:55:39 10° NE visible
03 Aug - 23:26:55 10° WNW 23:29:26 19° NNW 23:31:58 10° NNE visible
04 Aug - 01:05:05 10° NNW 01:07:07 15° N 01:09:08 10° NE visible
04 Aug - 02:41:35 10° NW 02:44:37 30° NNE 02:47:39 10° E visible
04 Aug - 04:18:13 10° WNW 04:21:24 40° SW 04:24:33 10° SSE visible
04 Aug - 21:00:11 10° SW 21:03:28 60° SE 21:06:46 10° ENE visible
04 Aug - 22:37:35 10° WNW 22:40:24 25° NNW 22:43:13 10° NE visible
05 Aug - 00:16:02 10° NW 00:17:59 15° N 00:19:57 10° NE visible
05 Aug - 01:52:51 10° NW 01:55:36 23° NNE 01:58:21 10° ENE night (unlit)
05 Aug - 03:29:15 10° WNW 03:32:36 72° SW 03:35:56 10° SE visible
05 Aug - 20:11:40 10° SSW 20:14:41 33° SE 20:17:44 10° ENE daylight
05 Aug - 21:48:19 10° W 21:51:23 34° NNW 21:54:29 10° NE visible
05 Aug - 23:26:48 10° NW 23:28:51 15° N 23:30:55 10° NNE visible
06 Aug - 01:04:06 10° NNW 01:06:32 18° NNE 01:08:59 10° ENE visible
06 Aug - 02:40:24 10° NW 02:43:45 66° NNE 02:47:05 10° ESE night (unlit)
06 Aug - 04:18:07 10° W 04:20:06 15° SW 04:22:04 10° SSW night (unlit)
06 Aug - 19:23:32 10° S 19:25:59 19° SE 19:28:26 10° E daylight
06 Aug - 20:59:11 10° WSW 21:02:26 51° NNW 21:05:43 10° NE visible
06 Aug - 22:37:27 10° NW 22:39:44 17° NNW 22:42:02 10° NNE visible
07 Aug - 00:15:16 10° NNW 00:17:26 16° N 00:19:36 10° NE visible
07 Aug - 01:51:37 10° NW 01:54:49 41° NNE 01:58:01 10° E night (unlit)
07 Aug - 03:28:34 10° WNW 03:31:24 25° SW 03:34:14 10° SSE night (unlit)
07 Aug - 18:36:24 10° SE 18:37:19 11° SE 18:38:14 10° ESE daylight
07 Aug - 20:10:13 10° SW 20:13:32 86° NW 20:16:53 10° NE daylight
07 Aug - 21:48:04 10° WNW 21:50:38 20° NNW 21:53:13 10° NNE visible
07 Aug - 23:26:19 10° NNW 23:28:18 15° N 23:30:17 10° NE visible
